Time,TemperatureF,DewpointF,PressureIn,WindDirection,WindDirectionDegrees,WindSpeedMPH,WindSpeedGustMPH,Humidity,HourlyPrecipIn,Conditions,Clouds,dailyrainin,SoftwareType,DateUTC
2013-11-14 00:04:00,29.9,25.1,29.92,SW,224,0.0,0.0,82,0.00,OVC,OVC,0.00,WeatherDisplay:10.37,2013-11-14 05:04:00,
2013-11-14 00:09:00,29.9,24.8,29.92,SW,224,0.0,0.0,81,0.00,OVC,OVC,0.00,WeatherDisplay:10.37,2013-11-14 05:09:00,
2013-11-14 00:14:00,29.8,24.7,29.91,SW,224,0.0,0.0,81,0.00,BKN,OVC,0.00,WeatherDisplay:10.37,2013-11-14 05:14:00,
2013-11-14 00:19:00,29.8,25.0,29.91,SW,224,0.0,0.0,82,0.00,BKN,OVC,0.00,WeatherDisplay:10.37,2013-11-14 05:19:00,
2013-11-14 00:24:00,29.7,24.9,29.91,SW,224,0.0,0.0,82,0.00,BKN,OVC,0.00,WeatherDisplay:10.37,2013-11-14 05:24:00,
2013-11-14 00:29:00,29.6,24.8,29.91,SW,224,0.0,0.0,82,0.00,BKN,OVC,0.00,WeatherDisplay:10.37,2013-11-14 05:29:00,
2013-11-14 00:34:00,29.5,24.7,29.91,SSW,212,0.0,2.0,82,0.00,BKN,OVC,0.00,WeatherDisplay:10.37,2013-11-14 05:34:00,
2013-11-14 00:39:00,29.4,24.6,29.91,SSW,204,0.0,1.0,82,0.00,BKN,OVC,0.00,WeatherDisplay:10.37,2013-11-14 05:39:00,
2013-11-14 00:44:00,29.3,24.8,29.90,SW,229,0.0,3.0,83,0.00,BKN,OVC,0.00,WeatherDisplay:10.37,2013-11-14 05:44:00,
2013-11-14 00:49:00,29.2,24.7,29.90,WSW,246,0.0,1.0,83,0.00,BKN,OVC,0.00,WeatherDisplay:10.37,2013-11-14 05:49:00,
2013-11-14 00:54:00,29.2,25.0,29.91,SW,222,0.0,2.0,84,0.00,BKN,OVC,0.00,WeatherDisplay:10.37,2013-11-14 05:54:00,
2013-11-14 00:59:00,29.1,24.9,29.90,SSW,212,0.0,0.0,84,0.00,BKN,OVC,0.00,WeatherDisplay:10.37,2013-11-14 05:59:00,
2013-11-14 01:04:00,29.1,25.2,29.90,SW,220,0.0,0.0,85,0.00,BKN,OVC,0.00,WeatherDisplay:10.37,2013-11-14 06:04:00,
2013-11-14 01:09:00,29.0,25.1,29.90,SW,220,0.0,0.0,85,0.00,BKN,OVC,0.00,WeatherDisplay:10.37,2013-11-14 06:09:00,
2013-11-14 01:14:00,28.9,25.0,29.90,SW,228,1.0,5.0,85,0.00,BKN,OVC,0.00,WeatherDisplay:10.37,2013-11-14 06:14:00,
2013-11-14 01:19:00,28.9,25.0,29.90,WSW,238,0.0,3.0,85,0.00,BKN,OVC,0.00,WeatherDisplay:10.37,2013-11-14 06:19:00,
2013-11-14 01:24:00,28.9,25.2,29.90,SW,227,1.0,5.0,86,0.00,BKN,OVC,0.00,WeatherDisplay:10.37,2013-11-14 06:24:00,
2013-11-14 01:29:00,28.9,25.2,29.90,WSW,241,0.0,6.0,86,0.00,BKN,OVC,0.00,WeatherDisplay:10.37,2013-11-14 06:29:00,
2013-11-14 01:34:00,28.9,25.5,29.89,WSW,237,0.0,7.0,87,0.00,BKN,OVC,0.00,WeatherDisplay:10.37,2013-11-14 06:34:00,
2013-11-14 01:39:00,28.9,25.5,29.89,SW,224,3.0,7.0,87,0.00,BKN,OVC,0.00,WeatherDisplay:10.37,2013-11-14 06:39:00,
2013-11-14 01:44:00,29.0,25.9,29.89,WSW,242,1.0,5.0,88,0.00,BKN,OVC,0.00,WeatherDisplay:10.37,2013-11-14 06:44:00,
2013-11-14 01:49:00,29.1,26.0,29.89,WSW,249,2.0,7.0,88,0.00,BKN,OVC,0.00,WeatherDisplay:10.37,2013-11-14 06:49:00,
2013-11-14 01:54:00,29.2,26.1,29.89,WSW,245,2.0,6.0,88,0.00,BKN,OVC,0.00,WeatherDisplay:10.37,2013-11-14 06:54:00,
2013-11-14 01:59:00,29.3,26.2,29.89,WSW,256,1.0,4.0,88,0.00,BKN,OVC,0.00,WeatherDisplay:10.37,2013-11-14 06:59:00,
2013-11-14 02:04:00,29.4,26.3,29.89,WSW,256,2.0,6.0,88,0.00,BKN,OVC,0.00,WeatherDisplay:10.37,2013-11-14 07:04:00,
2013-11-14 02:09:00,29.5,26.4,29.89,SW,235,1.0,9.0,88,0.00,BKN,OVC,0.00,WeatherDisplay:10.37,2013-11-14 07:09:00,
2013-11-14 02:14:00,29.5,26.4,29.89,WSW,242,2.0,8.0,88,0.00,BKN,OVC,0.00,WeatherDisplay:10.37,2013-11-14 07:14:00,
2013-11-14 02:19:00,29.6,26.5,29.88,WSW,250,2.0,8.0,88,0.00,BKN,OVC,0.00,WeatherDisplay:10.37,2013-11-14 07:19:00,
2013-11-14 02:24:00,29.7,26.5,29.89,WSW,249,1.0,5.0,88,0.00,BKN,OVC,0.00,WeatherDisplay:10.37,2013-11-14 07:24:00,
2013-11-14 02:29:00,29.7,26.6,29.88,West,263,2.0,5.0,88,0.00,BKN,OVC,0.00,WeatherDisplay:10.37,2013-11-14 07:29:00,
2013-11-14 02:34:00,29.8,27.0,29.88,SW,233,1.0,4.0,89,0.00,BKN,OVC,0.00,WeatherDisplay:10.37,2013-11-14 07:34:00,
2013-11-14 02:39:00,29.9,27.1,29.88,WSW,244,1.0,4.0,89,0.00,BKN,OVC,0.00,WeatherDisplay:10.37,2013-11-14 07:39:00,
2013-11-14 02:44:00,30.0,27.2,29.88,WSW,256,1.0,7.0,89,0.00,BKN,OVC,0.00,WeatherDisplay:10.37,2013-11-14 07:44:00,
2013-11-14 02:49:00,30.2,27.3,29.88,West,264,1.0,5.0,89,0.00,BKN,OVC,0.00,WeatherDisplay:10.37,2013-11-14 07:49:00,
2013-11-14 02:54:00,30.2,27.4,29.88,SW,235,2.0,8.0,89,0.00,BKN,OVC,0.00,WeatherDisplay:10.37,2013-11-14 07:54:00,
2013-11-14 02:59:00,30.4,27.5,29.88,WSW,246,3.0,8.0,89,0.00,BKN,OVC,0.00,WeatherDisplay:10.37,2013-11-14 07:59:00,
2013-11-14 03:04:00,30.6,27.7,29.88,WSW,247,2.0,7.0,89,0.00,BKN,OVC,0.00,WeatherDisplay:10.37,2013-11-14 08:04:00,
2013-11-14 03:09:00,30.8,27.9,29.88,WSW,255,1.0,8.0,89,0.00,BKN,OVC,0.00,WeatherDisplay:10.37,2013-11-14 08:09:00,
2013-11-14 03:19:00,31.3,28.4,29.88,WSW,250,2.0,9.0,89,0.00,BKN,OVC,0.00,WeatherDisplay:10.37,2013-11-14 08:19:00,
2013-11-14 07:59:00,33.8,25.4,29.93,West,266,3.0,10.0,71,0.00,BKN,OVC,0.00,WeatherDisplay:10.37,2013-11-14 12:59:00,
2013-11-14 08:04:00,33.8,25.4,29.93,West,270,5.0,13.0,71,0.00,OVC,OVC,0.00,WeatherDisplay:10.37,2013-11-14 13:04:00,
2013-11-14 08:09:00,33.9,25.8,29.93,West,263,2.0,8.0,72,0.00,OVC,OVC,0.00,WeatherDisplay:10.37,2013-11-14 13:09:00,
2013-11-14 08:14:00,33.9,25.5,29.93,West,267,2.0,14.0,71,0.00,OVC,OVC,0.00,WeatherDisplay:10.37,2013-11-14 13:14:00,
2013-11-14 08:19:00,34.0,25.9,29.93,WNW,283,2.0,9.0,72,0.00,OVC,OVC,0.00,WeatherDisplay:10.37,2013-11-14 13:19:00,
2013-11-14 08:24:00,34.0,25.6,29.93,West,271,5.0,12.0,71,0.00,OVC,OVC,0.00,WeatherDisplay:10.37,2013-11-14 13:24:00,
2013-11-14 08:29:00,34.1,25.7,29.93,West,268,2.0,10.0,71,0.00,OVC,OVC,0.00,WeatherDisplay:10.37,2013-11-14 13:29:00,
2013-11-14 08:34:00,34.2,25.8,29.93,West,271,2.0,10.0,71,0.00,OVC,OVC,0.00,WeatherDisplay:10.37,2013-11-14 13:34:00,
2013-11-14 08:39:00,34.2,25.8,29.93,WSW,248,5.0,12.0,71,0.00,OVC,OVC,0.00,WeatherDisplay:10.37,2013-11-14 13:39:00,
2013-11-14 08:44:00,34.3,26.2,29.94,SW,232,3.0,10.0,72,0.00,OVC,OVC,0.00,WeatherDisplay:10.37,2013-11-14 13:44:00,
2013-11-14 08:49:00,34.4,26.0,29.93,SW,235,2.0,6.0,71,0.00,OVC,OVC,0.00,WeatherDisplay:10.37,2013-11-14 13:49:00,
2013-11-14 08:54:00,34.5,26.1,29.93,WSW,249,1.0,12.0,71,0.00,OVC,OVC,0.00,WeatherDisplay:10.37,2013-11-14 13:54:00,
2013-11-14 09:04:00,34.7,26.3,29.93,West,265,5.0,13.0,71,0.00,OVC,OVC,0.00,WeatherDisplay:10.37,2013-11-14 14:04:00,
2013-11-14 09:09:00,34.7,26.3,29.94,WSW,242,6.0,12.0,71,0.00,OVC,OVC,0.00,WeatherDisplay:10.37,2013-11-14 14:09:00,
2013-11-14 09:14:00,34.8,26.0,29.94,West,261,7.0,15.0,70,0.00,OVC,OVC,0.00,WeatherDisplay:10.37,2013-11-14 14:14:00,
2013-11-14 09:19:00,34.9,26.1,29.94,WSW,258,5.0,12.0,70,0.00,OVC,OVC,0.00,WeatherDisplay:10.37,2013-11-14 14:19:00,
2013-11-14 09:24:00,34.9,26.1,29.94,West,266,2.0,13.0,70,0.00,OVC,OVC,0.00,WeatherDisplay:10.37,2013-11-14 14:24:00,
2013-11-14 09:29:00,35.1,26.3,29.94,WNW,282,3.0,10.0,70,0.00,OVC,OVC,0.00,WeatherDisplay:10.37,2013-11-14 14:29:00,
2013-11-14 09:39:00,35.2,26.4,29.94,WSW,242,3.0,8.0,70,0.00,OVC,OVC,0.00,WeatherDisplay:10.37,2013-11-14 14:39:00,
2013-11-14 09:44:00,35.4,26.6,29.94,WNW,286,3.0,10.0,70,0.00,OVC,OVC,0.00,WeatherDisplay:10.37,2013-11-14 14:44:00,
2013-11-14 09:49:00,35.4,26.6,29.94,WNW,288,2.0,12.0,70,0.00,OVC,OVC,0.00,WeatherDisplay:10.37,2013-11-14 14:49:00,
2013-11-14 09:54:00,35.5,26.7,29.94,WNW,301,3.0,13.0,70,0.00,OVC,OVC,0.00,WeatherDisplay:10.37,2013-11-14 14:54:00,
2013-11-14 09:59:00,35.6,26.8,29.94,WSW,237,5.0,12.0,70,0.00,OVC,OVC,0.00,WeatherDisplay:10.37,2013-11-14 14:59:00,
2013-11-14 10:04:00,35.7,26.9,29.94,WSW,250,3.0,12.0,70,0.00,OVC,OVC,0.00,WeatherDisplay:10.37,2013-11-14 15:04:00,
2013-11-14 10:09:00,35.7,26.9,29.94,West,266,1.0,14.0,70,0.00,OVC,OVC,0.00,WeatherDisplay:10.37,2013-11-14 15:09:00,
2013-11-14 10:14:00,35.8,27.3,29.94,West,271,3.0,13.0,71,0.00,OVC,OVC,0.00,WeatherDisplay:10.37,2013-11-14 15:14:00,
2013-11-14 10:19:00,35.9,27.0,29.94,WSW,245,5.0,14.0,70,0.00,OVC,OVC,0.00,WeatherDisplay:10.37,2013-11-14 15:19:00,
2013-11-14 10:24:00,36.0,27.1,29.94,WSW,242,2.0,12.0,70,0.00,OVC,OVC,0.00,WeatherDisplay:10.37,2013-11-14 15:24:00,
2013-11-14 10:29:00,36.2,27.7,29.94,WSW,252,2.0,8.0,71,0.00,OVC,OVC,0.00,WeatherDisplay:10.37,2013-11-14 15:29:00,
2013-11-14 10:34:00,36.2,27.0,29.94,WSW,241,3.0,11.0,69,0.00,OVC,OVC,0.00,WeatherDisplay:10.37,2013-11-14 15:34:00,
2013-11-14 10:39:00,36.4,27.2,29.94,WSW,241,5.0,11.0,69,0.00,OVC,OVC,0.00,WeatherDisplay:10.37,2013-11-14 15:39:00,
2013-11-14 10:44:00,36.4,27.5,29.94,West,265,5.0,8.0,70,0.00,OVC,OVC,0.00,WeatherDisplay:10.37,2013-11-14 15:44:00,
2013-11-14 10:49:00,36.4,27.2,29.94,WNW,283,6.0,14.0,69,0.00,OVC,OVC,0.00,WeatherDisplay:10.37,2013-11-14 15:49:00,
2013-11-14 10:54:00,36.5,27.6,29.93,West,261,3.0,11.0,70,0.00,OVC,OVC,0.00,WeatherDisplay:10.37,2013-11-14 15:54:00,
2013-11-14 10:59:00,36.6,27.7,29.93,WNW,286,6.0,15.0,70,0.01,RA,OVC,0.01,WeatherDisplay:10.37,2013-11-14 15:59:00,
2013-11-14 11:04:00,36.6,27.4,29.93,West,280,3.0,13.0,69,0.00,RA,OVC,0.01,WeatherDisplay:10.37,2013-11-14 16:04:00,
2013-11-14 11:09:00,36.8,27.9,29.93,West,273,3.0,13.0,70,0.00,OVC,OVC,0.01,WeatherDisplay:10.37,2013-11-14 16:09:00,
2013-11-14 11:14:00,36.9,28.0,29.93,WSW,239,3.0,11.0,70,0.00,OVC,OVC,0.01,WeatherDisplay:10.37,2013-11-14 16:14:00,
2013-11-14 11:19:00,37.0,28.1,29.93,WSW,245,5.0,13.0,70,0.00,OVC,OVC,0.01,WeatherDisplay:10.37,2013-11-14 16:19:00,
2013-11-14 11:24:00,37.0,28.1,29.93,West,270,6.0,12.0,70,0.00,OVC,OVC,0.01,WeatherDisplay:10.37,2013-11-14 16:24:00,
2013-11-14 11:29:00,37.1,28.6,29.92,WSW,254,5.0,14.0,71,0.00,OVC,OVC,0.01,WeatherDisplay:10.37,2013-11-14 16:29:00,
2013-11-14 11:39:00,37.2,28.7,29.92,WNW,284,2.0,10.0,71,0.00,OVC,OVC,0.01,WeatherDisplay:10.37,2013-11-14 16:39:00,
2013-11-14 11:44:00,37.3,28.8,29.92,WSW,257,3.0,13.0,71,0.01,RA,OVC,0.02,WeatherDisplay:10.37,2013-11-14 16:44:00,
2013-11-14 11:49:00,37.6,28.7,29.92,WSW,246,2.0,12.0,70,0.00,RA,OVC,0.02,WeatherDisplay:10.37,2013-11-14 16:49:00,
2013-11-14 11:54:00,37.8,28.9,29.92,WSW,248,6.0,14.0,70,0.00,OVC,OVC,0.02,WeatherDisplay:10.37,2013-11-14 16:54:00,
2013-11-14 11:59:00,38.0,29.1,29.92,WSW,241,5.0,10.0,70,0.00,OVC,OVC,0.02,WeatherDisplay:10.37,2013-11-14 16:59:00,
2013-11-14 12:04:00,38.3,29.3,29.92,West,261,5.0,12.0,70,0.01,RA,OVC,0.02,WeatherDisplay:10.37,2013-11-14 17:04:00,
2013-11-14 12:09:00,38.4,29.5,29.92,WSW,256,5.0,10.0,70,0.00,RA,OVC,0.02,WeatherDisplay:10.37,2013-11-14 17:09:00,
2013-11-14 12:14:00,38.3,29.3,29.92,SW,222,2.0,13.0,70,0.00,BKN,OVC,0.02,WeatherDisplay:10.37,2013-11-14 17:14:00,
2013-11-14 12:19:00,38.2,29.3,29.92,West,270,5.0,13.0,70,0.01,RA,OVC,0.03,WeatherDisplay:10.37,2013-11-14 17:19:00,
2013-11-14 12:24:00,38.2,29.3,29.92,WNW,294,2.0,9.0,70,0.00,RA,OVC,0.03,WeatherDisplay:10.37,2013-11-14 17:24:00,
2013-11-14 12:29:00,38.3,29.7,29.92,West,267,3.0,9.0,71,0.00,BKN,OVC,0.03,WeatherDisplay:10.37,2013-11-14 17:29:00,
2013-11-14 12:34:00,38.5,29.9,29.92,WSW,238,2.0,12.0,71,0.00,BKN,OVC,0.03,WeatherDisplay:10.37,2013-11-14 17:34:00,
2013-11-14 12:39:00,38.5,29.9,29.91,WSW,258,5.0,12.0,71,0.01,RA,OVC,0.04,WeatherDisplay:10.37,2013-11-14 17:39:00,
2013-11-14 12:44:00,38.6,30.0,29.91,WSW,252,3.0,12.0,71,0.00,RA,OVC,0.04,WeatherDisplay:10.37,2013-11-14 17:44:00,
2013-11-14 12:49:00,38.7,30.1,29.91,WSW,240,6.0,13.0,71,0.00,BKN,OVC,0.04,WeatherDisplay:10.37,2013-11-14 17:49:00,
2013-11-14 12:54:00,38.8,30.2,29.91,WSW,255,6.0,12.0,71,0.01,RA,OVC,0.05,WeatherDisplay:10.37,2013-11-14 17:54:00,
2013-11-14 12:59:00,39.0,30.4,29.91,WSW,238,6.0,12.0,71,0.00,RA,OVC,0.05,WeatherDisplay:10.37,2013-11-14 17:59:00,
2013-11-14 13:09:00,39.3,30.7,29.92,West,279,1.0,13.0,71,0.00,BKN,OVC,0.05,WeatherDisplay:10.37,2013-11-14 18:09:00,
2013-11-14 13:14:00,39.5,30.8,29.91,West,260,5.0,12.0,71,0.01,RA,OVC,0.05,WeatherDisplay:10.37,2013-11-14 18:14:00,
2013-11-14 13:19:00,39.6,31.0,29.91,SW,228,2.0,12.0,71,0.00,RA,OVC,0.05,WeatherDisplay:10.37,2013-11-14 18:19:00,
2013-11-14 13:24:00,39.6,31.3,29.91,SW,227,2.0,9.0,72,0.00,OVC,OVC,0.05,WeatherDisplay:10.37,2013-11-14 18:24:00,
2013-11-14 13:29:00,39.9,31.3,29.91,WSW,257,2.0,5.0,71,0.00,OVC,OVC,0.05,WeatherDisplay:10.37,2013-11-14 18:29:00,
2013-11-14 13:39:00,40.0,31.4,29.91,SW,228,2.0,12.0,71,0.00,RA,OVC,0.06,WeatherDisplay:10.37,2013-11-14 18:39:00,
2013-11-14 13:44:00,39.9,31.3,29.92,SW,217,1.0,9.0,71,0.01,RA,OVC,0.07,WeatherDisplay:10.37,2013-11-14 18:44:00,
2013-11-14 13:49:00,39.8,31.5,29.92,SW,222,3.0,9.0,72,0.00,RA,OVC,0.07,WeatherDisplay:10.37,2013-11-14 18:49:00,
2013-11-14 13:54:00,39.5,31.2,29.92,SW,234,1.0,9.0,72,0.01,RA,OVC,0.08,WeatherDisplay:10.37,2013-11-14 18:54:00,
2013-11-14 13:59:00,39.4,31.1,29.92,WSW,242,2.0,7.0,72,0.00,RA,OVC,0.08,WeatherDisplay:10.37,2013-11-14 18:59:00,
2013-11-14 14:04:00,39.4,31.5,29.92,WSW,243,2.0,8.0,73,0.01,RA,OVC,0.09,WeatherDisplay:10.37,2013-11-14 19:04:00,
2013-11-14 14:09:00,39.2,30.9,29.92,WSW,240,6.0,10.0,72,0.00,RA,OVC,0.09,WeatherDisplay:10.37,2013-11-14 19:09:00,
2013-11-14 14:14:00,39.1,31.2,29.92,SW,235,5.0,9.0,73,0.00,OVC,OVC,0.09,WeatherDisplay:10.37,2013-11-14 19:14:00,
2013-11-14 14:19:00,38.8,30.9,29.93,SW,219,1.0,12.0,73,0.01,RA,OVC,0.09,WeatherDisplay:10.37,2013-11-14 19:19:00,
2013-11-14 14:24:00,38.7,31.1,29.92,West,268,3.0,12.0,74,0.00,RA,OVC,0.09,WeatherDisplay:10.37,2013-11-14 19:24:00,
2013-11-14 14:34:00,38.6,30.7,29.92,SW,220,5.0,12.0,73,0.00,OVC,OVC,0.09,WeatherDisplay:10.37,2013-11-14 19:34:00,
2013-11-14 14:39:00,38.5,30.9,29.93,WSW,238,2.0,7.0,74,0.01,RA,OVC,0.10,WeatherDisplay:10.37,2013-11-14 19:39:00,
2013-11-14 14:44:00,38.5,30.9,29.93,WSW,241,2.0,9.0,74,0.00,RA,OVC,0.10,WeatherDisplay:10.37,2013-11-14 19:44:00,
2013-11-14 14:49:00,38.4,30.8,29.93,SW,230,2.0,9.0,74,0.00,OVC,OVC,0.10,WeatherDisplay:10.37,2013-11-14 19:49:00,
2013-11-14 14:54:00,38.3,31.1,29.93,WSW,238,2.0,9.0,75,0.00,OVC,OVC,0.10,WeatherDisplay:10.37,2013-11-14 19:54:00,
2013-11-14 14:59:00,38.4,30.8,29.93,SW,234,2.0,13.0,74,0.00,OVC,OVC,0.10,WeatherDisplay:10.37,2013-11-14 19:59:00,
2013-11-14 15:04:00,38.4,31.2,29.93,SW,222,1.0,6.0,75,0.00,OVC,OVC,0.10,WeatherDisplay:10.37,2013-11-14 20:04:00,
2013-11-14 15:14:00,38.4,31.2,29.93,SW,220,1.0,8.0,75,0.00,OVC,OVC,0.10,WeatherDisplay:10.37,2013-11-14 20:14:00,
2013-11-14 15:19:00,38.4,31.2,29.93,SW,226,2.0,8.0,75,0.01,RA,OVC,0.11,WeatherDisplay:10.37,2013-11-14 20:19:00,
2013-11-14 15:24:00,38.4,31.2,29.93,SW,225,0.0,5.0,75,0.00,RA,OVC,0.11,WeatherDisplay:10.37,2013-11-14 20:24:00,
2013-11-14 15:29:00,38.4,31.2,29.93,WSW,238,0.0,5.0,75,0.00,OVC,OVC,0.11,WeatherDisplay:10.37,2013-11-14 20:29:00,
2013-11-14 15:34:00,38.3,31.1,29.93,SW,227,1.0,7.0,75,0.00,OVC,OVC,0.11,WeatherDisplay:10.37,2013-11-14 20:34:00,
2013-11-14 15:44:00,38.3,31.4,29.93,WSW,243,1.0,4.0,76,0.00,OVC,OVC,0.11,WeatherDisplay:10.37,2013-11-14 20:44:00,
2013-11-14 15:49:00,38.3,31.1,29.94,WSW,244,1.0,7.0,75,0.00,OVC,OVC,0.11,WeatherDisplay:10.37,2013-11-14 20:49:00,
2013-11-14 15:54:00,38.3,31.4,29.94,WSW,254,1.0,6.0,76,0.01,RA,OVC,0.12,WeatherDisplay:10.37,2013-11-14 20:54:00,
2013-11-14 15:59:00,38.2,31.3,29.94,WSW,251,2.0,5.0,76,0.00,RA,OVC,0.12,WeatherDisplay:10.37,2013-11-14 20:59:00,
2013-11-14 16:04:00,38.2,31.3,29.94,West,260,1.0,5.0,76,0.00,OVC,OVC,0.12,WeatherDisplay:10.37,2013-11-14 21:04:00,
2013-11-14 16:09:00,38.2,31.3,29.94,WSW,251,0.0,5.0,76,0.00,OVC,OVC,0.12,WeatherDisplay:10.37,2013-11-14 21:09:00,
2013-11-14 16:14:00,38.2,31.3,29.94,West,266,0.0,3.0,76,0.00,BKN,OVC,0.12,WeatherDisplay:10.37,2013-11-14 21:14:00,
2013-11-14 16:19:00,38.1,31.2,29.94,WNW,296,0.0,4.0,76,0.00,BKN,OVC,0.12,WeatherDisplay:10.37,2013-11-14 21:19:00,
2013-11-14 16:24:00,38.1,31.2,29.94,WNW,292,0.0,2.0,76,0.00,BKN,OVC,0.12,WeatherDisplay:10.37,2013-11-14 21:24:00,
2013-11-14 16:29:00,38.1,31.2,29.94,West,270,0.0,2.0,76,0.00,BKN,OVC,0.12,WeatherDisplay:10.37,2013-11-14 21:29:00,
2013-11-14 16:34:00,38.0,31.1,29.95,West,272,0.0,3.0,76,0.01,RA,OVC,0.13,WeatherDisplay:10.37,2013-11-14 21:34:00,
2013-11-14 16:39:00,38.0,31.1,29.95,WSW,251,0.0,0.0,76,0.00,RA,OVC,0.13,WeatherDisplay:10.37,2013-11-14 21:39:00,
2013-11-14 16:44:00,37.9,31.0,29.94,WSW,244,0.0,0.0,76,0.00,BKN,OVC,0.13,WeatherDisplay:10.37,2013-11-14 21:44:00,
2013-11-14 16:49:00,37.9,31.3,29.94,WSW,244,0.0,0.0,77,0.00,BKN,OVC,0.13,WeatherDisplay:10.37,2013-11-14 21:49:00,
2013-11-14 16:54:00,37.9,31.3,29.94,WSW,244,0.0,0.0,77,0.00,BKN,OVC,0.13,WeatherDisplay:10.37,2013-11-14 21:54:00,
2013-11-14 16:59:00,37.8,31.2,29.94,WSW,244,0.0,0.0,77,0.00,BKN,OVC,0.13,WeatherDisplay:10.37,2013-11-14 21:59:00,
2013-11-14 17:04:00,37.7,31.1,29.94,WSW,244,0.0,0.0,77,0.00,BKN,OVC,0.13,WeatherDisplay:10.37,2013-11-14 22:04:00,
2013-11-14 17:09:00,37.6,31.0,29.94,WSW,244,0.0,0.0,77,0.00,BKN,OVC,0.13,WeatherDisplay:10.37,2013-11-14 22:09:00,
2013-11-14 17:14:00,37.4,31.2,29.94,WSW,244,0.0,0.0,78,0.00,BKN,OVC,0.13,WeatherDisplay:10.37,2013-11-14 22:14:00,
2013-11-14 17:19:00,37.2,31.0,29.95,WSW,244,0.0,0.0,78,0.00,BKN,OVC,0.13,WeatherDisplay:10.37,2013-11-14 22:19:00,
2013-11-14 17:24:00,37.0,30.8,29.95,WSW,244,0.0,0.0,78,0.00,BKN,OVC,0.13,WeatherDisplay:10.37,2013-11-14 22:24:00,
2013-11-14 17:29:00,36.8,30.9,29.95,WSW,244,0.0,0.0,79,0.01,RA,OVC,0.13,WeatherDisplay:10.37,2013-11-14 22:29:00,
2013-11-14 17:34:00,36.5,30.6,29.95,WSW,244,0.0,0.0,79,0.00,RA,OVC,0.13,WeatherDisplay:10.37,2013-11-14 22:34:00,
2013-11-14 17:39:00,36.3,30.4,29.95,WSW,244,0.0,0.0,79,0.00,BKN,OVC,0.13,WeatherDisplay:10.37,2013-11-14 22:39:00,
2013-11-14 17:44:00,36.0,30.4,29.95,WSW,244,0.0,0.0,80,0.00,BKN,OVC,0.13,WeatherDisplay:10.37,2013-11-14 22:44:00,
2013-11-14 17:49:00,35.8,30.2,29.95,WSW,244,0.0,0.0,80,0.00,BKN,OVC,0.13,WeatherDisplay:10.37,2013-11-14 22:49:00,
2013-11-14 17:54:00,35.4,30.2,29.95,WSW,244,0.0,0.0,81,0.00,BKN,OVC,0.13,WeatherDisplay:10.37,2013-11-14 22:54:00,
2013-11-14 17:59:00,35.1,29.9,29.95,WSW,244,0.0,0.0,81,0.00,BKN,OVC,0.13,WeatherDisplay:10.37,2013-11-14 22:59:00,
2013-11-14 18:04:00,34.8,29.6,29.95,WSW,244,0.0,0.0,81,0.00,BKN,OVC,0.13,WeatherDisplay:10.37,2013-11-14 23:04:00,
2013-11-14 18:09:00,34.5,29.6,29.95,WSW,244,0.0,0.0,82,0.00,BKN,OVC,0.13,WeatherDisplay:10.37,2013-11-14 23:09:00,
2013-11-14 18:14:00,34.2,29.3,29.95,WSW,244,0.0,0.0,82,0.00,BKN,OVC,0.13,WeatherDisplay:10.37,2013-11-14 23:14:00,
2013-11-14 18:19:00,33.9,29.0,29.95,WSW,244,0.0,0.0,82,0.00,BKN,OVC,0.13,WeatherDisplay:10.37,2013-11-14 23:19:00,
2013-11-14 18:24:00,33.6,29.0,29.95,WSW,244,0.0,0.0,83,0.00,BKN,OVC,0.13,WeatherDisplay:10.37,2013-11-14 23:24:00,
2013-11-14 18:29:00,33.3,28.7,29.95,WSW,244,0.0,0.0,83,0.00,BKN,OVC,0.13,WeatherDisplay:10.37,2013-11-14 23:29:00,
2013-11-14 18:34:00,33.1,28.5,29.95,WSW,244,0.0,0.0,83,0.00,BKN,OVC,0.13,WeatherDisplay:10.37,2013-11-14 23:34:00,
2013-11-14 18:39:00,32.8,28.5,29.95,WSW,244,0.0,0.0,84,0.00,BKN,OVC,0.13,WeatherDisplay:10.37,2013-11-14 23:39:00,
2013-11-14 18:44:00,32.5,28.2,29.95,WSW,244,0.0,0.0,84,0.00,BKN,OVC,0.13,WeatherDisplay:10.37,2013-11-14 23:44:00,
2013-11-14 18:49:00,32.3,28.3,29.95,WSW,244,0.0,0.0,85,0.00,BKN,OVC,0.13,WeatherDisplay:10.37,2013-11-14 23:49:00,
2013-11-14 18:54:00,32.1,28.1,29.95,WSW,244,0.0,0.0,85,0.00,BKN,OVC,0.13,WeatherDisplay:10.37,2013-11-14 23:54:00,
2013-11-14 18:59:00,31.9,27.9,29.95,WSW,244,0.0,0.0,85,0.00,BKN,OVC,0.13,WeatherDisplay:10.37,2013-11-14 23:59:00,
2013-11-14 19:04:00,31.6,27.9,29.95,WSW,244,0.0,0.0,86,0.00,BKN,OVC,0.13,WeatherDisplay:10.37,2013-11-15 00:04:00,
2013-11-14 19:09:00,31.4,27.7,29.95,WSW,244,0.0,0.0,86,0.00,BKN,OVC,0.13,WeatherDisplay:10.37,2013-11-15 00:09:00,
2013-11-14 19:14:00,31.2,27.7,29.95,WSW,244,0.0,0.0,87,0.00,SCT,OVC,0.13,WeatherDisplay:10.37,2013-11-15 00:14:00,
2013-11-14 19:19:00,31.0,27.6,29.95,WSW,244,0.0,0.0,87,0.00,SCT,OVC,0.13,WeatherDisplay:10.37,2013-11-15 00:19:00,
2013-11-14 19:24:00,30.9,27.7,29.95,WSW,244,0.0,0.0,88,0.00,SCT,OVC,0.13,WeatherDisplay:10.37,2013-11-15 00:24:00,
2013-11-14 19:29:00,30.7,27.6,29.95,WSW,244,0.0,0.0,88,0.00,SCT,OVC,0.13,WeatherDisplay:10.37,2013-11-15 00:29:00,
2013-11-14 19:34:00,30.6,27.5,29.95,WSW,244,0.0,0.0,88,0.00,SCT,OVC,0.13,WeatherDisplay:10.37,2013-11-15 00:34:00,
2013-11-14 19:39:00,30.4,27.3,29.95,WSW,244,0.0,0.0,88,0.00,SCT,OVC,0.13,WeatherDisplay:10.37,2013-11-15 00:39:00,
2013-11-14 19:44:00,30.3,27.4,29.95,WSW,244,0.0,0.0,89,0.00,SCT,OVC,0.13,WeatherDisplay:10.37,2013-11-15 00:44:00,
2013-11-14 19:49:00,30.2,27.3,29.95,WSW,244,0.0,0.0,89,0.00,SCT,OVC,0.13,WeatherDisplay:10.37,2013-11-15 00:49:00,
2013-11-14 19:54:00,30.1,27.2,29.95,WSW,244,0.0,0.0,89,0.00,SCT,OVC,0.13,WeatherDisplay:10.37,2013-11-15 00:54:00,
2013-11-14 19:59:00,29.9,27.3,29.95,WSW,244,0.0,0.0,90,0.00,SCT,OVC,0.13,WeatherDisplay:10.37,2013-11-15 00:59:00,
2013-11-14 20:04:00,29.8,27.2,29.95,WSW,244,0.0,0.0,90,0.00,SCT,OVC,0.13,WeatherDisplay:10.37,2013-11-15 01:04:00,
2013-11-14 20:09:00,29.7,27.1,29.95,WSW,244,0.0,0.0,90,0.00,SCT,OVC,0.13,WeatherDisplay:10.37,2013-11-15 01:09:00,
2013-11-14 20:14:00,29.6,27.0,29.95,WSW,244,0.0,0.0,90,0.00,SCT,OVC,0.13,WeatherDisplay:10.37,2013-11-15 01:14:00,
2013-11-14 20:19:00,29.6,27.0,29.95,WSW,244,0.0,0.0,90,0.00,SCT,OVC,0.13,WeatherDisplay:10.37,2013-11-15 01:19:00,
2013-11-14 20:24:00,29.5,26.9,29.95,WSW,244,0.0,0.0,90,0.00,SCT,OVC,0.13,WeatherDisplay:10.37,2013-11-15 01:24:00,
2013-11-14 20:29:00,29.4,26.8,29.95,WSW,244,0.0,0.0,90,0.00,SCT,OVC,0.13,WeatherDisplay:10.37,2013-11-15 01:29:00,
2013-11-14 20:34:00,29.3,26.7,29.95,WSW,244,0.0,0.0,90,0.00,SCT,OVC,0.13,WeatherDisplay:10.37,2013-11-15 01:34:00,
2013-11-14 20:39:00,29.2,26.6,29.95,WSW,244,0.0,0.0,90,0.00,SCT,OVC,0.13,WeatherDisplay:10.37,2013-11-15 01:39:00,
2013-11-14 20:44:00,29.1,26.5,29.95,WSW,244,0.0,0.0,90,0.00,SCT,OVC,0.13,WeatherDisplay:10.37,2013-11-15 01:44:00,
2013-11-14 20:49:00,29.0,26.4,29.95,WSW,244,0.0,0.0,90,0.00,SCT,OVC,0.13,WeatherDisplay:10.37,2013-11-15 01:49:00,
2013-11-14 20:54:00,28.9,26.6,29.95,WSW,244,0.0,0.0,91,0.00,SCT,OVC,0.13,WeatherDisplay:10.37,2013-11-15 01:54:00,
2013-11-14 20:59:00,28.8,26.5,29.95,WSW,244,0.0,0.0,91,0.00,SCT,OVC,0.13,WeatherDisplay:10.37,2013-11-15 01:59:00,
2013-11-14 21:04:00,28.7,26.4,29.95,WSW,244,0.0,0.0,91,0.00,SCT,OVC,0.13,WeatherDisplay:10.37,2013-11-15 02:04:00,
2013-11-14 21:09:00,28.7,26.4,29.95,WSW,244,0.0,0.0,91,0.00,SCT,OVC,0.13,WeatherDisplay:10.37,2013-11-15 02:09:00,
2013-11-14 21:14:00,28.6,26.3,29.95,WSW,244,0.0,0.0,91,0.00,BKN,OVC,0.13,WeatherDisplay:10.37,2013-11-15 02:14:00,
2013-11-14 21:19:00,28.6,26.3,29.95,WSW,244,0.0,0.0,91,0.00,BKN,OVC,0.13,WeatherDisplay:10.37,2013-11-15 02:19:00,
2013-11-14 21:24:00,28.5,26.2,29.95,WSW,244,0.0,0.0,91,0.00,BKN,OVC,0.13,WeatherDisplay:10.37,2013-11-15 02:24:00,
2013-11-14 21:29:00,28.4,26.1,29.95,WSW,244,0.0,0.0,91,0.00,BKN,OVC,0.13,WeatherDisplay:10.37,2013-11-15 02:29:00,
2013-11-14 21:34:00,28.4,26.4,29.95,WSW,244,0.0,0.0,92,0.00,BKN,OVC,0.13,WeatherDisplay:10.37,2013-11-15 02:34:00,
2013-11-14 21:39:00,28.3,26.3,29.95,WSW,244,0.0,0.0,92,0.00,BKN,OVC,0.13,WeatherDisplay:10.37,2013-11-15 02:39:00,
2013-11-14 21:44:00,28.3,26.3,29.95,WSW,244,0.0,0.0,92,0.00,BKN,OVC,0.13,WeatherDisplay:10.37,2013-11-15 02:44:00,
2013-11-14 21:49:00,28.3,26.2,29.94,WSW,244,0.0,0.0,92,0.00,BKN,OVC,0.13,WeatherDisplay:10.37,2013-11-15 02:49:00,
2013-11-14 21:54:00,28.2,26.2,29.94,WSW,244,0.0,0.0,92,0.00,BKN,OVC,0.13,WeatherDisplay:10.37,2013-11-15 02:54:00,
2013-11-14 21:59:00,28.2,26.2,29.94,WSW,244,0.0,0.0,92,0.00,BKN,OVC,0.13,WeatherDisplay:10.37,2013-11-15 02:59:00,
2013-11-14 22:04:00,28.1,26.1,29.94,WSW,244,0.0,0.0,92,0.00,BKN,OVC,0.13,WeatherDisplay:10.37,2013-11-15 03:04:00,
2013-11-14 22:09:00,28.1,26.1,29.94,WSW,244,0.0,0.0,92,0.00,BKN,OVC,0.13,WeatherDisplay:10.37,2013-11-15 03:09:00,
2013-11-14 22:14:00,28.0,26.0,29.95,WSW,244,0.0,0.0,92,0.00,BKN,OVC,0.13,WeatherDisplay:10.37,2013-11-15 03:14:00,
2013-11-14 22:19:00,28.0,26.0,29.94,WSW,244,0.0,0.0,92,0.00,BKN,OVC,0.13,WeatherDisplay:10.37,2013-11-15 03:19:00,
2013-11-14 22:24:00,27.9,25.9,29.94,WSW,244,0.0,0.0,92,0.00,BKN,OVC,0.13,WeatherDisplay:10.37,2013-11-15 03:24:00,
2013-11-14 22:29:00,27.9,25.9,29.94,WSW,244,0.0,0.0,92,0.00,BKN,OVC,0.13,WeatherDisplay:10.37,2013-11-15 03:29:00,
2013-11-14 22:34:00,27.9,26.1,29.94,WSW,244,0.0,0.0,93,0.00,BKN,OVC,0.13,WeatherDisplay:10.37,2013-11-15 03:34:00,
2013-11-14 22:39:00,27.8,26.0,29.94,WSW,244,0.0,0.0,93,0.00,BKN,OVC,0.13,WeatherDisplay:10.37,2013-11-15 03:39:00,
2013-11-14 22:44:00,27.8,26.0,29.94,WSW,244,0.0,0.0,93,0.00,BKN,OVC,0.13,WeatherDisplay:10.37,2013-11-15 03:44:00,
2013-11-14 22:49:00,27.7,25.9,29.94,WSW,244,0.0,0.0,93,0.00,BKN,OVC,0.13,WeatherDisplay:10.37,2013-11-15 03:49:00,
2013-11-14 22:54:00,27.7,25.9,29.94,WSW,244,0.0,0.0,93,0.00,BKN,OVC,0.13,WeatherDisplay:10.37,2013-11-15 03:54:00,
2013-11-14 22:59:00,27.6,25.9,29.94,WSW,244,0.0,0.0,93,0.00,BKN,OVC,0.13,WeatherDisplay:10.37,2013-11-15 03:59:00,
2013-11-14 23:04:00,27.6,25.8,29.94,WSW,244,0.0,0.0,93,0.00,BKN,OVC,0.13,WeatherDisplay:10.37,2013-11-15 04:04:00,
2013-11-14 23:09:00,27.5,25.7,29.94,WSW,244,0.0,0.0,93,0.00,BKN,OVC,0.13,WeatherDisplay:10.37,2013-11-15 04:09:00,
2013-11-14 23:19:00,27.4,25.6,29.94,WSW,244,0.0,0.0,93,0.00,BKN,OVC,0.13,WeatherDisplay:10.37,2013-11-15 04:19:00,
2013-11-14 23:24:00,27.4,25.6,29.94,WSW,244,0.0,0.0,93,0.00,BKN,OVC,0.13,WeatherDisplay:10.37,2013-11-15 04:24:00,
2013-11-14 23:29:00,27.3,25.5,29.94,WSW,244,0.0,0.0,93,0.00,BKN,OVC,0.13,WeatherDisplay:10.37,2013-11-15 04:29:00,
2013-11-14 23:34:00,27.3,25.5,29.94,WSW,244,0.0,0.0,93,0.00,BKN,OVC,0.13,WeatherDisplay:10.37,2013-11-15 04:34:00,
2013-11-14 23:39:00,27.2,25.4,29.94,WSW,244,0.0,0.0,93,0.00,BKN,OVC,0.13,WeatherDisplay:10.37,2013-11-15 04:39:00,
2013-11-14 23:44:00,27.2,25.4,29.94,WSW,244,0.0,0.0,93,0.00,BKN,OVC,0.13,WeatherDisplay:10.37,2013-11-15 04:44:00,
2013-11-14 23:49:00,27.1,25.3,29.94,WSW,244,0.0,0.0,93,0.00,BKN,OVC,0.13,WeatherDisplay:10.37,2013-11-15 04:49:00,
2013-11-14 23:54:00,27.1,25.3,29.94,WSW,244,0.0,0.0,93,0.00,BKN,OVC,0.13,WeatherDisplay:10.37,2013-11-15 04:54:00,
2013-11-14 23:59:00,27.1,25.3,29.94,WSW,244,0.0,0.0,93,0.00,RA,OVC,0.00,WeatherDisplay:10.37,2013-11-15 04:59:00,